Погода Большой Шантар

Погода Большой Шантар : погода сейчас, прогноз погоды и архив. Всё, что Вы хотите узнать о погоде Большой Шантар!

Хотите узнать прогноз погоды Большой Шантар? Тогда Вам сюда: Погода Большой Шантар

Поиск расширенной информации на нашем сайте:

Другие новости

Новости СМИ2

Главная страница сайта

Новости сайта

03.07.2017

Напоминаем, что на нашем специализированном сайте Метеоцентр.Азия вы можете получить высокодетализированные автоматические прогнозы погоды по пунктам России, СНГ и мира в авиационном формате (включающие направление и скорость ветра, видимость, явления погоды, количество и форму облачности, нижнюю и верхнюю границу облачности).

Рекомендуем: мобильные электрокардиографы

Погода Большой Шантар - сегодня

Время (UTC), дата Ветер
(°,м/с) 
Видим.   Явления Облачность Т
(°С)
Тd
(°С)
f(%) Тe
(°С)
Pmin
(гПа)
dP
(гПа)
Po
(мм)
O2
(г/м3)
Тmin Tmax R s Состояние
почвы
03 19.02.18 320 (СЗ) 20000 м    3/3 600 м 
[Sc]
-13.9 -23 46 -19  1010.3  -1.1  757  323           
09 19.02.18 310 (СЗ) 3{11}  20000 м    6/3 600 м средняя, верхняя 
[Sc|Ac trans|Cs]
-15.7 -24.6 46 -19  1010.4  0.5  757  325    -13.7       
12 19.02.18 320 (СЗ) 20000 м    4/3 600 м верхняя 
[Sc|Ci fib]
-16.4 -23.7 53 -20  1010.1  -0.3  757  326           
15 19.02.18 320 (СЗ) 20000 м    3/0 верхняя 
[Ci fib]
-17.7 -24.5 55 -22  1009.4  -0.7  756  327           
18 19.02.18 320 (СЗ) 20000 м    ясно 
-18.5 -25.2 56 -24  1009.1  -0.3  756  328           
12 20.02.18 320 (СЗ) 20000 м    3/3 600 м 
[Sc]
-17.8 -25.9 49 -23  1009.4  0.2  756  328           
15 20.02.18 320 (СЗ) 20000 м    3/3 600 м 
[Sc]
-18.4 -26.1 51 -24  1009.2  -0.2  756  328           
18 20.02.18 360 (С) 20000 м    ясно 
-19.9 -27.5 51 -24  1009.2  0.1  756  330           
03 21.02.18 300 (СЗ) 20000 м    4/3 600 м верхняя 
[Sc|Cs]
-16.8 -25.7 46 -22  1010.2  0.3  757  327           
06 21.02.18 290 (З) 20000 м    6/6 600 м кучево-дожд. 
[Cb cap]
-16.4 -26 43 -21  1010.7  0.5  757  326           
12 21.02.18 040 (СВ) 20000 м    3/3 600 м 
[Sc]
-27.8 -32.4 65 -31  1013.4  759  342           
15 21.02.18 030 (СВ) 20000 м    ясно 
-30 -33.9 69 -36  1013.7  0.3  759  346           
18 21.02.18 030 (СВ) 20000 м    ясно 
-31.1 -34.5 72 -35  1013.9  0.2  759  347           
03 22.02.18 190 (Ю) 20000 м    8/3 600 м верхняя 
[Sc|Ci fib]
-18.8 -22.4 73 -21  1015.8  1.1  761  331           
06 22.02.18 240 (ЮЗ) 20000 м    6/4 600 м верхняя 
[Sc|Ci fib]
-16.4 -22.1 61 -20  1015.8  1.1  761  328           
09 22.02.18 090 (В) 20000 м    4/4 600 м 
[Sc]
-25.1 -29.8 65 -28  1017.5  1.7  762  340    -16.1       
12 22.02.18 020 (С) 20000 м    3/3 600 м 
[Sc]
-29.8 -33.3 72 -35  1018.9  1.3  763  347           
15 22.02.18 020 (С) 20000 м    3/3 600 м 
[Sc]
-31 -34.1 74 -37  1019.4  0.5  764  349           
18 22.02.18 030 (СВ) 20000 м    ясно 
-32.6 -36.1 71 -39  1019.9  0.5  764  352           
03 23.02.18 190 (Ю) 20000 м    4/1 600 м верхняя 
[Sc|Ci fib]
-16.4 -21.5 65 -20  1021.9  -0.2  766  330           
06 23.02.18 200 (Ю) 20000 м    6/0 верхняя 
[Cc]
-15.1 -21.2 60 -19  1022.2  0.3  766  328           
12 23.02.18 030 (СВ) 20000 м  слаб. снег  10/0 верхняя 
[Cs]
-18.7 -22.2 74 -21  1023.7  0.7  767  333           
15 23.02.18 080 (В) 20000 м  слаб. снег  10/0 средняя 
[As op]
-19.7 -22.2 80 -20  1023.6  0.1  767  335           
18 23.02.18 060 (СВ) 20000 м  слаб. снег  10/0 средняя 
[As op]
-23 -25.4 81 -26  1023.7  767  339           
21 23.02.18 090 (В) 20000 м  слаб. снег  8/0 средняя 
[As op]
-25.2 -27.6 80 -26  1023.8  0.1  767  342  -25.6    0.2  31  равномерный
сухой снег
100% 
Время (UTC), дата Ветер
(°,м/с) 
Видим.   Явления Облачность Т
(°С)
Тd
(°С)
f(%) Тe
(°С)
Pmin
(гПа)
dP
(гПа)
Po
(мм)
O2
(г/м3)
Тmin Tmax R s Состояние
почвы

Для получения пояснительной информации подведите курсор к названию столбца.

ПОГОДА Большой Шантар - архив

Всё, что Вы хотите узнать о погоде Большой Шантар - удобно и подробно!

Выберите нужную дату (начиная с 1 января 2015* года) и нажмите кнопку "Найти".
Будут отображены архивные сводки погоды по пункту Большой Шантар, начиная с указанной даты.


Отображать данные в формате CSV (для использования в таблицах Excel)


Внимание! Наш архив погоды предназначен исключительно для личного некоммерческого использования в познавательных целях. Если Вам необходимы официальные справки о состоянии погоды (для производственных, юридических, коммерческих и т.п. целей), обращайтесь в органы Росгидромета.

*Примечание: данная дата относится к архиву по метеостанциям СССР (Россия, СНГ, Балтия).
Архив по метеостанциям Зарубежной Европы и Азии (кроме Китая) хранится 10 дней, по другим регионам земного шара (Китай, Африка, Америка, Австралия, Океания) - 1 день.

Большой Шантар - район местоположения метеостанции


Название, широта, долгота, высота метеостанции:
Большой Шантар 54.8°ш. 137.5°д. 21 м над ур. моря [Российская Федерация]

Дополнительная информация

В oтличие oт бoльшинства пoгoдных сайтoв мы публикуем пoдрoбную метеoинфoрмацию в детальнoм прoфессиoнальнoм фoрмате.

Характеристики температуры и влажнoсти вoздуха измеряются на высoте 2 м в тени вдали oт зданий и деревьев.
Скoрoсть ветра измеряется на высoте 10 м (на урoвне рoста челoвека скoрoсть ветра ниже в 1.5-2 раза). Если метеoстанция нахoдится в гoрoде или в лесу, тo скoрoсть ветра занижена на 2-4 м/с пo сравнению с oткрытым местoм. Скoрoсть ветра над акватoриями крупных рек и oзёр, а также на вершинах хoлмoв на 2-5 м/с выше, чем в oбычных услoвиях.
Атмoсфернoе давление в разных тoчках местнoсти мoжет значительнo oтличаться oт давления на метеoстанции, в зависимoсти oт услoвий рельефа (при пoдъёме на 10 м давление пoнижается примернo на 1 мм рт.ст.).